Wind_Speed
19 19 19 18 18 17 16 16 16 15 15 15 15 15 16 16 17 17 17 17 17 17 17 18 18 18 17 17 16 16 16 16 16 15 14 13 13 12 11 10 10 9 9 10 10 11 12 12 12 12 11 11 11 12 13 13 14 15 16 17 17 17 17 17 17 18 19 20 19 20 20 20 20 20 19 20 21 22 22 23 23 23 23 24 25
20 20 20 20 19 18 18 17 16 16 15 15 16 16 16 16 17 18 17 18 18 18 18 18 19 19 20 19 19 18 18 18 18 17 16 15 15 14 13 12 12 11 10 11 11 12 13 13 14 14 14 13 12 13 14 15 15 16 16 17 17 16 16 17 17 17 17 18 19 19 18 18 19 20 19 19 21 22 23 23 24 24 24 24 25
20 21 20 19 19 19 19 18 17 17 16 16 16 17 17 17 18 18 18 19 19 19 19 19 20 20 20 21 21 20 20 20 20 19 18 18 17 16 15 14 14 13 12 12 12 12 13 14 15 16 16 15 14 14 15 16 16 16 15 15 14 14 14 14 14 13 13 14 16 17 18 17 17 18 19 19 20 21 23 23 24 25 25 25 25
21 20 20 19 20 19 19 18 18 17 17 17 17 18 18 19 19 19 19 20 20 20 21 21 21 21 21 21 21 21 21 22 22 21 20 20 19 19 18 16 15 15 14 14 13 13 13 15 16 17 17 17 16 15 15 16 16 15 14 13 12 11 12 12 12 12 13 13 14 16 18 18 18 18 19 20 20 21 22 24 25 25 26 26 26
20 20 20 20 20 19 19 19 18 18 18 18 19 20 20 20 20 20 20 20 20 21 21 21 22 22 22 22 22 22 22 22 23 23 21 21 21 21 20 18 16 15 15 15 14 14 14 15 16 18 18 18 18 17 16 16 15 14 13 12 12 11 12 12 13 14 14 14 15 16 17 19 20 20 21 21 22 22 23 24 25 26 27 28 28
20 20 21 20 20 19 20 19 19 19 19 19 20 21 21 20 20 20 19 19 19 19 21 21 22 22 23 23 22 22 23 23 23 23 23 22 22 22 22 21 18 16 16 16 15 15 15 16 17 17 18 19 20 20 19 17 16 15 14 13 13 13 14 14 15 16 17 17 17 17 18 20 21 22 23 24 24 25 25 26 27 27 28 29 29
20 20 20 20 20 19 20 20 20 20 20 21 21 22 22 21 19 19 18 19 18 18 19 21 21 22 22 23 23 22 23 23 23 23 24 23 23 23 24 23 20 17 16 16 16 16 16 16 17 17 18 20 21 22 21 20 18 16 15 15 15 15 16 16 17 17 19 20 20 20 20 21 22 24 25 26 27 27 27 28 28 29 29 31 31
20 20 21 21 20 20 21 22 22 22 22 22 22 22 22 21 20 19 19 18 18 18 18 19 21 21 21 21 22 22 23 23 23 23 24 24 24 24 25 24 21 18 17 17 17 18 17 17 17 17 18 20 22 23 23 22 20 19 18 17 17 17 17 18 18 19 20 21 22 23 23 23 24 25 26 28 29 29 28 29 30 30 31 32 33
20 19 19 20 20 20 22 22 22 22 22 23 23 23 23 22 20 19 18 18 19 18 18 18 19 20 20 20 21 22 22 22 23 23 24 25 25 25 25 24 21 18 17 18 19 19 19 18 18 18 19 20 22 24 25 24 23 22 21 21 20 20 20 21 20 21 22 23 23 25 25 26 26 27 27 29 31 31 31 31 31 32 33 33 34
19 18 17 18 19 20 21 22 21 22 22 23 23 24 24 23 22 20 19 19 19 19 18 17 17 18 19 20 20 21 21 21 22 23 24 25 25 25 23 21 19 17 17 18 19 20 20 20 19 18 19 20 21 23 24 26 25 24 24 24 24 23 23 24 23 23 24 25 25 26 27 28 29 29 29 30 32 33 34 34 34 34 34 34 35
19 18 17 17 18 18 19 20 20 20 21 22 23 24 25 24 23 22 20 19 19 19 18 17 16 17 19 19 19 19 19 20 21 22 22 22 22 22 19 18 17 17 17 17 19 21 22 22 21 20 19 19 20 22 24 25 27 27 26 27 27 26 26 27 27 27 27 27 28 29 30 31 32 32 32 33 33 34 36 36 36 36 36 35 36
21 20 18 17 17 16 16 17 18 19 20 21 23 25 26 25 23 22 21 20 20 19 18 17 17 17 17 18 19 18 18 19 20 19 19 19 19 18 17 17 17 17 17 18 19 21 22 23 23 23 22 20 20 21 23 24 26 28 29 29 29 28 28 29 30 30 30 30 30 31 32 34 35 35 36 36 36 36 37 38 39 39 38 38 37
24 23 21 19 18 17 16 16 16 17 19 21 23 25 26 25 23 22 22 21 21 20 19 18 17 17 16 16 17 17 17 17 17 17 17 17 17 17 17 17 17 17 18 18 19 20 21 22 23 24 24 24 23 22 23 24 26 29 31 31 30 30 30 30 31 32 33 34 33 33 34 37 38 38 39 39 39 39 40 40 41 42 42 42 40
27 26 25 22 20 19 18 17 16 17 18 20 22 24 25 24 24 23 23 22 21 20 18 18 18 18 17 17 17 16 16 16 16 15 15 15 16 17 17 16 16 16 16 17 18 19 19 21 22 23 24 24 24 23 23 24 26 29 32 32 32 32 32 32 32 33 35 36 36 36 37 39 40 41 42 42 43 43 43 43 44 44 45 46 45
29 29 29 27 25 23 21 20 19 19 19 20 21 21 23 24 24 24 23 23 21 20 19 19 19 19 19 18 17 16 15 15 15 14 14 15 16 17 17 17 16 16 17 18 19 20 21 23 23 24 25 26 25 25 25 25 26 29 32 33 33 33 33 32 32 34 36 37 38 38 39 41 42 43 44 45 46 47 47 47 48 47 48 50 50
32 31 31 31 30 27 24 22 21 21 21 22 22 22 23 24 25 25 24 23 22 21 20 20 20 20 20 19 18 16 16 16 15 15 15 16 17 18 18 19 20 19 20 20 22 23 24 25 27 28 29 30 30 30 31 31 31 32 34 35 36 37 35 33 32 34 36 38 39 40 42 43 44 45 46 47 47 49 50 51 51 52 52 53 53
33 33 33 33 32 31 28 24 22 20 19 21 22 23 24 25 25 25 25 24 23 22 21 21 22 22 21 21 19 18 18 18 18 17 17 17 19 20 22 23 24 24 24 24 25 26 27 28 29 31 31 32 33 34 35 36 36 36 37 39 40 41 41 38 36 36 37 38 40 41 43 45 45 46 48 48 49 51 52 53 54 55 55 56 56
34 33 34 34 34 33 31 27 23 20 18 18 20 23 25 25 25 26 26 25 24 24 23 23 23 23 22 22 21 21 20 20 20 20 20 21 22 23 25 28 29 28 28 29 29 29 29 30 31 32 32 33 34 35 38 40 39 38 39 41 43 44 43 43 42 42 41 42 43 43 44 46 47 48 49 50 51 51 52 54 56 57 57 58 59
34 34 35 35 35 35 33 29 25 21 18 17 19 21 24 25 25 26 26 26 25 25 24 24 24 24 24 24 24 23 23 23 23 23 23 24 25 26 27 29 31 32 33 34 33 33 32 32 32 33 34 35 36 36 38 40 40 39 41 43 45 44 42 43 46 46 44 45 46 46 47 48 50 51 52 52 52 53 53 54 57 59 59 60 60
37 37 37 36 36 37 35 30 27 23 20 18 19 21 23 24 24 24 25 25 25 25 24 23 23 24 25 25 26 26 26 26 26 25 25 27 28 30 31 31 32 33 35 36 37 36 36 36 35 36 37 39 40 39 39 40 41 42 44 45 45 43 43 45 48 49 47 46 46 47 48 49 51 53 54 54 55 56 56 56 58 60 61 61 61
38 39 39 38 37 38 36 32 28 25 23 21 20 20 21 22 22 22 23 24 24 23 23 22 22 22 23 25 26 27 28 28 27 27 27 29 31 32 34 33 33 35 37 38 39 39 39 39 40 41 42 44 45 44 43 43 44 46 47 48 46 45 48 50 51 52 52 51 49 49 50 51 51 51 54 54 54 57 59 59 59 62 63 63 62
36 38 39 39 39 38 37 35 31 28 26 24 22 21 20 20 20 20 20 21 22 22 22 22 22 22 23 24 25 26 28 29 29 29 30 32 33 34 35 35 36 38 39 40 41 41 41 42 44 44 45 47 48 48 48 48 49 50 50 50 50 51 53 54 55 56 56 55 53 52 52 53 53 52 54 55 55 57 59 60 60 63 64 63 62
31 34 36 38 38 38 38 37 34 31 28 26 24 23 22 22 21 20 20 21 22 22 23 23 23 24 24 25 26 27 29 31 32 33 32 33 34 34 35 36 37 39 40 41 41 42 43 44 45 46 48 49 50 51 52 52 53 53 53 53 54 55 56 58 59 60 60 58 56 55 54 54 54 54 54 55 56 57 59 61 62 64 64 63 62
27 29 32 34 36 38 38 37 36 33 30 28 27 26 25 25 24 23 22 23 23 23 24 25 25 26 27 28 29 30 31 32 33 33 33 33 34 35 35 37 38 40 41 42 43 44 46 47 48 50 51 52 52 53 54 54 54 54 54 54 56 57 59 60 61 63 63 61 58 56 55 54 55 55 55 55 56 57 59 62 63 64 65 65 63
26 26 28 31 34 35 36 37 36 34 31 30 29 28 27 27 27 26 26 25 25 25 26 27 28 29 29 30 30 32 32 31 32 34 35 35 35 36 37 38 40 42 44 44 45 47 49 50 51 53 54 53 53 53 54 54 54 54 55 56 58 59 61 62 64 66 66 65 62 60 58 56 56 57 57 58 58 57 59 61 63 64 66 65 63
27 27 28 30 32 32 34 35 35 34 33 32 31 30 29 29 29 28 28 27 27 27 27 28 29 30 30 31 32 33 33 33 34 37 38 37 37 38 40 42 43 45 47 48 48 49 51 52 52 53 54 55 55 55 55 56 56 57 57 58 59 60 62 64 66 68 69 69 67 65 63 61 60 60 60 61 60 59 59 60 63 66 68 66 64
28 28 28 29 29 30 31 34 34 34 34 34 33 32 31 31 31 30 29 29 29 29 29 30 31 32 33 34 35 35 36 36 38 39 40 40 40 42 44 45 47 49 50 51 51 52 53 53 53 53 55 56 58 58 57 58 58 59 60 60 61 62 64 65 67 70 71 71 71 69 66 65 64 63 64 64 63 63 62 62 63 67 68 66 65
29 29 28 28 28 29 31 32 33 34 35 36 35 34 33 33 33 32 31 31 31 31 32 33 34 35 36 37 38 38 38 39 40 42 42 44 45 47 48 49 51 52 52 53 54 55 55 55 55 55 56 58 60 60 59 59 60 60 60 61 63 65 67 69 70 71 71 71 71 70 68 67 65 65 66 67 66 65 65 65 65 66 67 66 66
29 29 29 29 28 29 31 32 34 35 36 36 35 34 33 34 35 34 32 32 33 34 35 35 36 37 38 39 40 40 41 41 43 44 46 48 50 51 52 54 54 54 54 55 56 57 57 58 57 57 59 61 61 61 60 60 61 62 61 62 63 66 70 71 73 74 74 74 74 72 69 67 66 65 65 66 66 66 66 67 67 66 65 65 66
30 30 30 30 29 30 32 33 35 36 35 34 33 33 34 35 35 35 34 34 35 36 37 38 39 39 40 42 42 43 43 44 46 48 50 52 54 55 56 57 56 56 56 57 57 58 59 60 60 60 61 62 63 63 62 61 63 63 63 64 65 67 70 73 75 77 77 77 77 77 75 73 71 69 65 63 64 66 66 67 68 67 64 63 63
32 31 31 31 31 32 34 34 36 36 35 34 34 34 35 36 36 37 37 37 37 38 39 40 41 42 43 44 45 45 46 48 49 51 53 55 57 59 59 58 58 58 59 59 60 61 61 62 62 62 62 63 64 63 62 62 63 64 64 65 66 67 69 72 74 75 75 74 75 77 77 74 72 72 70 65 62 63 64 66 67 66 65 63 62
33 32 32 32 33 34 34 35 36 37 36 36 36 37 38 39 39 39 39 40 40 41 42 42 43 45 47 47 48 49 50 52 53 54 56 58 59 59 59 59 60 61 61 62 64 64 65 65 65 64 64 64 63 62 61 61 62 63 64 65 66 66 66 68 69 71 73 75 76 78 77 73 68 69 72 71 66 62 63 65 65 62 63 64 61
34 34 34 34 34 35 36 36 37 38 38 38 39 40 40 41 41 42 42 42 43 44 44 45 47 49 50 50 51 52 53 55 56 57 58 59 58 57 58 60 62 64 64 66 67 67 67 66 65 64 64 64 63 62 61 60 61 62 63 64 65 66 66 68 69 71 73 76 79 78 77 73 69 67 69 71 69 64 61 61 61 60 61 62 61
36 36 36 37 37 37 38 38 39 40 40 41 41 42 42 43 44 44 45 45 46 47 48 49 51 52 53 53 54 55 57 58 59 59 59 58 57 59 61 63 65 66 66 67 67 66 65 64 64 63 63 62 62 61 59 58 59 60 62 65 67 68 69 70 72 75 78 81 80 75 73 73 69 63 61 62 64 64 61 59 59 59 58 56 56
39 38 38 39 39 39 40 40 40 41 42 42 43 44 44 45 46 46 47 48 49 50 51 52 52 53 54 56 57 58 59 59 59 59 59 59 60 62 64 65 66 67 66 66 65 64 63 63 62 62 61 60 59 57 56 57 58 60 63 66 68 68 70 73 77 80 80 78 74 69 69 69 63 56 54 56 57 58 58 57 58 58 54 51 51
40 40 40 40 40 41 42 43 43 44 44 45 45 46 46 47 48 49 50 51 52 53 54 54 55 56 57 59 59 59 58 58 58 60 62 63 63 64 65 66 67 67 65 64 63 63 63 63 62 61 61 60 59 57 56 57 58 61 65 67 67 68 70 73 76 74 66 61 61 61 59 56 51 48 47 48 50 52 54 56 57 55 50 48 49
41 41 41 41 42 43 44 45 46 47 47 48 48 49 50 50 51 52 52 53 55 56 56 57 57 58 58 58 58 57 57 58 60 63 65 65 65 65 66 67 66 65 64 63 62 62 63 63 63 62 61 61 60 58 57 57 59 62 63 64 65 66 68 70 68 59 46 44 49 52 48 44 43 44 42 41 44 50 54 56 57 50 43 42 44
43 44 44 44 45 45 46 47 48 49 50 51 51 52 53 53 54 54 55 56 57 58 58 58 58 57 57 57 57 57 58 60 62 64 65 65 65 65 65 65 64 64 63 63 62 62 63 63 62 62 61 60 59 58 57 57 59 60 60 60 61 63 67 68 60 46 36 37 39 35 31 31 32 33 36 36 39 45 50 52 51 45 40 40 42
47 47 47 47 47 47 48 48 49 50 51 51 52 53 54 54 55 55 56 56 57 58 58 58 58 57 57 57 58 59 59 61 62 64 65 65 64 64 64 63 63 63 64 63 62 62 61 60 59 59 58 57 56 56 55 56 57 57 55 55 55 58 62 59 47 35 30 30 27 24 28 36 35 32 34 35 33 35 41 44 44 44 44 43 41
49 49 49 49 50 50 50 51 51 51 52 52 52 53 53 54 54 55 56 56 57 58 59 59 59 58 58 59 59 60 60 61 63 64 64 63 63 63 62 62 62 62 62 61 60 58 57 56 56 55 55 55 54 53 54 54 53 52 52 52 51 52 52 45 37 32 30 27 24 27 37 46 46 42 40 35 30 32 35 36 37 41 44 43 40
51 51 52 52 52 52 53 53 53 54 54 54 54 54 54 55 55 56 57 58 59 60 61 61 61 60 60 60 61 61 61 62 62 61 60 60 61 61 60 60 60 59 58 56 56 55 54 54 54 54 53 53 52 51 52 51 50 49 49 48 48 47 43 32 26 28 29 29 33 36 36 37 39 41 38 32 32 33 34 34 36 40 42 41 39
53 54 54 55 55 55 55 56 56 57 57 57 58 58 58 58 58 58 59 60 61 62 63 63 63 62 61 61 62 63 63 62 60 58 57 58 59 59 59 58 57 55 54 52 52 52 53 54 54 51 50 50 49 49 49 49 47 46 45 43 41 40 36 29 22 22 27 31 32 27 22 23 26 29 30 32 34 35 35 36 38 39 38 37 36
56 57 57 58 58 57 57 58 58 59 59 60 61 61 61 60 59 59 60 60 62 63 64 64 64 63 63 63 64 64 62 59 57 56 57 57 57 57 56 56 55 53 52 51 51 51 53 54 52 49 46 46 46 46 47 47 45 43 41 40 37 34 33 33 31 27 25 24 22 20 22 24 24 25 29 33 34 36 36 37 36 34 33 33 33
59 59 59 59 59 59 60 61 61 62 63 63 62 62 61 60 59 60 60 60 61 63 63 63 64 64 64 64 64 62 59 57 57 57 57 57 56 55 55 54 53 52 52 51 51 51 52 51 49 46 44 43 44 44 45 45 44 41 39 39 38 34 33 33 33 31 29 28 28 27 25 23 23 25 29 31 31 32 32 32 31 30 29 31 33
60 61 61 61 61 62 63 63 64 64 63 63 62 61 61 60 61 61 61 61 62 63 63 64 64 64 63 62 60 58 58 58 58 58 57 55 54 54 53 52 51 50 50 50 49 48 48 47 46 44 43 42 42 42 43 44 44 42 40 40 39 36 33 32 31 30 28 27 27 25 23 23 24 25 26 27 28 29 29 29 30 30 30 31 33
62 62 62 63 63 64 64 65 65 64 64 63 63 62 61 62 62 62 62 63 64 65 65 64 63 61 60 59 57 57 58 58 58 57 56 54 53 52 51 50 49 48 47 47 46 46 45 45 45 44 43 42 41 40 41 42 43 43 42 41 39 37 35 32 30 29 27 26 26 25 25 24 25 25 25 26 27 28 28 29 30 31 32 34 34
64 64 64 65 66 66 66 66 65 64 64 64 63 63 63 64 64 64 64 64 65 66 66 64 61 59 58 57 56 56 57 56 56 56 55 53 52 51 50 49 48 47 46 45 44 45 45 44 45 44 44 42 41 39 39 39 40 42 43 41 38 35 33 31 29 28 28 27 27 26 25 25 26 27 27 28 28 29 30 31 31 33 35 36 33
66 66 67 67 67 67 67 66 66 65 65 65 65 64 65 66 66 66 65 65 65 65 63 60 57 56 56 55 55 55 55 55 55 54 54 53 52 50 49 48 47 46 45 44 44 44 44 44 44 45 44 42 41 40 39 38 38 39 41 40 37 33 30 29 28 28 28 28 27 26 25 25 26 27 28 29 30 30 31 32 32 34 34 33 30
69 69 69 69 68 68 67 67 67 67 67 68 67 67 67 68 68 67 66 64 62 60 58 56 55 54 54 53 53 54 54 54 54 54 53 52 51 50 49 48 46 45 45 44 43 43 43 43 43 44 44 43 42 41 40 38 37 37 38 39 37 34 30 29 28 27 27 27 28 28 27 27 28 28 30 31 31 31 30 30 29 29 28 27 27
70 69 69 68 68 67 67 67 67 68 69 69 69 69 69 69 69 66 62 59 57 55 54 54 53 53 53 52 53 53 54 55 55 54 52 51 50 49 48 47 47 46 45 44 44 43 43 43 43 43 43 43 42 41 40 38 37 36 36 36 37 36 33 30 28 27 26 27 28 30 30 31 31 32 32 32 31 30 28 27 26 25 25 26 26
66 66 66 65 65 65 65 66 67 69 71 72 71 70 70 69 66 61 57 55 54 53 53 53 52 52 52 52 53 54 55 56 56 54 51 50 49 48 48 47 47 47 46 46 45 44 44 43 43 43 43 43 42 41 39 38 37 36 36 35 35 35 35 34 33 33 32 32 32 32 33 33 34 34 33 32 30 28 27 26 25 25 25 25 24
Wind_Direction
229 231 234 237 241 244 245 247 248 248 247 247 248 249 252 255 258 259 261 262 262 262 261 260 260 261 262 265 268 270 271 274 279 285 291 297 304 308 301 281 267 265 268 268 266 266 272 281 290 300 309 317 321 321 319 320 323 324 323 320 313 307 303 301 302 305 309 310 311 313 318 321 323 328 333 335 333 332 333 334 333 332 332 332 332
231 232 233 235 237 239 241 242 245 247 248 250 251 253 254 255 256 258 260 261 262 262 262 262 263 264 265 266 268 270 271 271 273 277 282 286 292 299 301 290 274 266 265 267 266 266 270 277 285 293 301 307 313 315 315 317 321 323 322 320 315 309 303 302 305 310 315 317 318 321 324 327 330 334 338 340 338 336 335 335 335 334 334 333 333
231 233 235 236 237 238 239 241 243 246 249 253 256 258 259 260 261 262 262 262 263 264 264 264 265 265 266 268 269 270 271 272 271 272 274 278 284 291 297 295 282 271 265 266 269 268 268 274 281 288 294 299 304 308 312 316 320 324 324 321 318 314 309 309 314 321 327 329 330 331 331 334 337 339 340 340 341 340 340 340 339 338 337 336 336
230 232 233 236 238 239 242 244 247 250 252 254 257 258 260 261 263 263 264 266 267 267 267 267 267 267 267 268 269 269 270 271 273 272 272 275 280 286 292 295 288 277 269 267 269 271 271 272 277 282 288 293 297 301 306 312 317 321 321 318 317 316 314 315 319 326 331 333 334 335 335 335 337 339 339 339 340 341 343 344 343 341 340 339 338
232 234 234 236 238 240 243 246 250 254 256 257 258 259 260 261 263 265 266 267 267 268 269 270 269 269 268 268 268 269 270 271 274 275 274 274 277 282 288 293 290 280 272 268 268 270 273 272 273 278 283 287 290 294 298 304 309 313 314 311 309 309 310 313 317 320 325 328 330 332 333 333 334 335 335 336 337 339 341 343 344 342 341 340 340
237 238 239 239 240 241 244 247 250 253 256 257 258 259 261 262 264 265 265 265 266 268 270 272 271 270 269 268 267 268 270 271 273 275 276 275 275 279 285 289 289 280 271 267 265 266 269 271 272 275 278 281 285 288 290 294 300 303 304 303 303 304 305 307 311 314 316 320 324 326 328 328 329 330 331 332 334 337 338 340 341 342 341 340 339
246 246 246 245 244 245 247 248 250 252 254 255 256 258 261 263 264 264 264 264 266 268 270 272 274 272 269 269 268 267 268 270 271 273 275 275 275 278 282 286 286 278 269 264 261 260 263 267 271 273 275 277 279 282 284 288 292 296 298 298 299 301 302 302 306 309 311 314 316 319 322 324 325 327 328 329 330 333 335 337 338 340 341 340 338
251 252 253 253 251 250 250 249 250 251 252 254 255 257 260 263 264 261 260 263 267 269 269 270 272 273 271 269 269 268 267 268 269 270 272 273 273 274 278 282 282 275 268 263 259 257 259 263 269 272 273 273 274 276 280 284 288 292 294 296 297 298 299 299 301 304 306 309 312 313 316 318 320 322 324 325 326 328 330 333 334 336 338 339 337
247 250 253 256 256 254 253 253 251 250 251 253 255 256 258 261 261 259 258 262 266 268 270 269 270 271 271 269 268 270 269 268 267 267 268 269 271 273 276 279 280 273 266 264 262 259 259 261 265 270 272 272 273 275 278 282 286 290 293 295 296 296 296 296 297 299 301 304 307 308 310 312 313 316 319 320 321 323 325 327 328 330 333 336 335
245 247 249 253 255 255 255 254 251 247 248 251 253 254 256 258 259 258 256 258 262 267 270 270 268 267 269 269 269 270 270 268 267 267 267 269 271 274 275 278 278 275 268 266 266 266 265 264 265 267 270 274 277 278 279 280 282 286 290 292 293 294 295 294 294 296 298 300 303 305 306 308 308 309 312 314 316 319 320 321 322 324 327 330 332
247 249 251 254 256 256 256 255 251 247 247 249 251 253 255 257 259 258 257 258 262 266 269 270 267 265 265 267 269 268 268 267 266 266 266 267 269 272 275 276 277 277 274 271 270 271 271 271 271 271 272 275 279 282 283 283 283 284 285 286 287 291 294 295 295 295 296 297 300 302 303 304 305 306 307 309 312 315 316 316 318 319 321 323 326
257 256 258 260 259 255 253 254 252 249 248 250 250 252 255 258 260 261 262 262 263 266 269 269 267 265 264 264 266 266 265 263 262 262 263 263 265 270 274 276 276 277 278 276 274 273 275 277 278 280 281 281 282 284 286 287 287 286 285 284 285 287 290 292 294 295 296 296 297 299 301 301 302 303 304 305 307 311 312 313 314 316 317 318 320
264 264 264 265 262 255 250 250 252 252 252 253 252 254 258 262 263 264 264 264 266 269 272 273 271 269 266 261 260 261 259 257 257 258 259 262 264 267 271 275 278 280 282 282 282 282 282 282 282 284 286 287 287 288 288 288 288 288 287 286 286 286 286 287 290 292 293 294 295 297 298 299 299 301 302 303 305 306 308 310 312 313 314 313 315
264 267 268 269 267 261 254 252 254 256 257 258 258 259 262 265 265 265 265 266 269 272 275 276 273 270 267 262 260 259 257 255 256 256 257 260 264 267 269 272 275 280 284 287 290 291 291 289 289 290 291 292 294 296 295 293 290 289 288 288 288 286 285 284 286 287 288 289 291 293 295 295 297 298 300 301 302 303 304 306 308 310 310 310 311
262 264 267 270 271 268 263 258 258 259 259 260 262 263 265 265 266 266 266 266 269 272 274 274 272 270 269 267 263 259 256 253 251 251 253 255 258 264 270 274 276 279 283 287 291 294 294 294 295 297 298 300 301 302 301 298 295 293 294 294 293 289 287 286 285 284 283 285 287 288 290 291 293 294 296 298 299 300 302 303 305 306 306 307 308
261 262 263 267 271 272 270 267 266 265 261 258 257 259 262 263 264 265 265 265 267 269 271 270 268 267 266 265 262 258 254 252 247 246 250 256 263 268 272 276 279 280 282 285 288 290 291 294 296 298 300 301 302 302 301 298 295 295 295 295 294 292 291 290 288 285 284 284 284 285 286 287 288 290 292 294 295 297 299 300 302 303 303 303 305
260 260 260 263 268 271 272 274 273 268 262 258 254 253 255 257 259 261 262 263 264 265 265 263 262 262 263 263 262 258 254 252 248 246 248 257 268 276 279 280 280 281 283 285 286 288 289 292 294 296 298 299 299 299 297 294 293 293 292 291 290 289 289 290 289 287 286 285 284 284 284 285 286 287 289 291 292 294 296 298 298 299 300 301 302
259 259 258 260 263 266 270 273 272 265 261 261 257 252 250 252 255 258 260 260 261 261 262 261 262 263 264 264 263 261 258 255 253 251 252 254 260 268 274 278 281 284 286 287 288 288 289 290 292 294 294 294 294 294 293 292 291 291 291 290 289 289 290 291 289 286 284 284 284 284 284 285 286 286 287 288 289 291 293 295 295 295 296 298 299
257 257 257 257 258 262 266 270 269 261 256 259 259 254 251 251 253 256 259 261 263 263 264 265 266 266 267 267 267 266 264 261 261 261 262 263 265 269 273 278 284 290 292 292 291 289 289 291 291 290 290 290 291 292 292 291 291 290 290 290 291 293 295 293 289 286 284 284 285 284 284 284 286 287 287 287 288 289 289 290 291 292 293 294 295
253 254 255 255 255 258 262 265 266 259 252 256 260 256 252 251 253 256 260 263 266 268 269 270 270 270 271 272 272 271 269 269 271 274 276 279 281 283 284 285 288 289 289 289 289 289 291 292 290 288 288 289 291 291 289 288 288 288 288 288 289 292 293 289 287 287 287 286 286 285 284 284 285 287 286 285 285 286 286 286 287 288 288 290 291
247 250 253 253 253 256 259 262 262 256 249 252 257 257 253 252 253 256 260 265 269 272 274 274 273 273 274 275 275 275 274 275 276 279 281 283 284 284 284 284 284 282 281 282 284 286 288 289 288 289 289 290 291 291 289 287 287 286 287 288 289 289 287 285 285 285 285 285 285 285 285 284 286 287 288 288 288 288 287 286 284 284 284 285 287
241 244 248 250 251 253 256 260 260 256 249 249 254 257 256 254 254 255 259 263 267 269 271 272 273 273 272 273 273 274 274 275 275 276 276 277 277 277 278 278 278 278 279 281 283 285 286 286 287 288 288 289 290 289 289 290 289 288 289 290 289 288 286 285 284 283 283 284 284 283 283 284 285 287 288 290 291 291 292 291 287 285 285 285 286
241 242 244 247 248 250 253 256 258 257 251 248 251 254 254 254 255 256 257 259 261 264 267 270 272 273 273 273 274 275 275 274 274 273 272 271 270 272 273 275 276 278 280 282 284 285 285 285 286 286 286 287 288 288 290 291 290 290 291 290 289 288 286 285 284 283 283 284 283 283 283 284 284 285 286 288 290 291 293 292 290 290 290 290 289
245 245 245 245 246 248 249 251 255 256 252 247 249 252 254 254 255 256 258 259 261 263 265 268 270 272 273 276 278 279 280 277 273 272 271 270 271 272 274 277 280 283 285 287 287 287 286 285 285 285 285 287 288 289 290 290 290 291 291 290 289 287 286 286 285 285 284 284 284 284 283 283 283 284 285 285 285 287 289 289 290 291 292 292 291
246 245 245 244 245 247 247 248 251 252 249 246 247 250 252 253 254 255 257 259 261 263 265 267 268 270 272 276 279 282 283 281 277 275 274 275 277 279 282 284 286 288 289 289 289 288 287 286 286 287 287 288 289 289 289 291 292 292 291 290 289 288 287 286 285 285 285 285 285 283 282 282 282 282 282 282 281 282 284 286 287 288 288 289 289
246 243 242 242 244 245 246 247 248 247 245 244 245 247 249 251 253 255 257 259 261 264 267 269 271 273 275 278 280 283 285 283 280 280 280 282 283 285 287 288 288 288 289 289 289 288 287 286 287 288 289 289 290 291 292 293 294 294 293 291 289 288 287 286 285 284 284 284 284 283 282 282 281 280 280 280 281 282 283 284 285 285 285 287 287
247 244 242 241 242 243 244 245 245 243 242 242 244 246 249 251 253 255 258 260 261 263 268 273 276 278 280 281 282 284 285 284 282 283 284 285 285 286 287 287 287 287 288 288 288 287 287 287 288 289 290 290 291 291 292 294 295 295 295 294 293 291 289 287 285 284 283 283 282 282 281 280 279 279 280 280 281 282 282 283 283 284 286 288 287
248 247 245 243 241 241 242 243 242 241 242 243 245 248 251 253 255 257 260 262 265 268 272 276 278 278 280 282 283 284 284 283 282 283 284 285 286 286 286 286 287 287 287 287 288 288 288 289 290 290 291 291 290 290 291 293 294 294 294 295 295 293 290 288 286 284 283 281 280 280 279 278 277 277 277 278 279 280 280 280 280 281 284 286 285
247 247 246 244 241 240 241 242 242 243 245 247 249 251 252 255 258 260 262 264 267 270 272 273 275 276 279 281 283 283 282 281 282 283 284 285 285 286 286 287 287 286 286 286 288 289 290 291 292 292 292 291 291 291 291 292 293 293 293 294 293 291 290 289 287 285 282 279 277 276 276 275 275 274 274 275 276 277 277 277 276 279 282 283 283
246 246 245 244 242 241 242 242 244 247 249 250 251 253 255 257 260 263 264 265 267 268 270 272 274 276 279 280 281 281 280 280 281 282 283 284 285 286 287 287 287 286 286 287 289 291 292 292 293 293 293 293 292 292 292 292 292 293 293 293 292 291 290 289 289 287 284 281 281 280 278 275 273 273 273 273 273 274 275 274 275 278 281 282 283
245 246 247 246 243 241 242 243 245 249 251 252 253 256 257 259 261 262 263 265 266 267 270 272 273 276 278 280 280 279 279 280 280 281 282 284 285 287 287 287 286 286 287 289 291 292 293 293 294 294 294 294 294 293 293 293 293 295 295 294 292 291 291 291 291 290 287 285 283 281 278 276 273 271 271 271 271 271 271 273 275 277 279 281 282
245 247 248 247 245 244 243 244 246 250 252 253 254 256 258 259 261 262 264 265 266 268 269 271 273 275 276 277 277 277 277 278 279 280 282 283 285 285 285 285 285 287 289 291 292 292 292 293 295 295 295 295 295 294 294 294 295 295 294 293 292 292 292 292 292 291 289 286 283 279 277 276 273 269 268 268 268 267 269 271 273 275 277 280 282
245 247 248 248 248 247 246 246 247 249 251 252 254 256 258 260 261 263 264 265 266 267 268 270 271 272 273 274 275 275 276 277 279 281 282 282 282 282 282 283 286 288 291 292 292 292 293 294 295 295 295 295 294 294 295 295 296 295 294 294 294 294 294 294 293 291 289 287 285 281 278 276 272 269 267 267 266 265 268 271 271 273 277 279 281
244 246 247 248 248 248 248 248 249 250 251 253 254 256 257 259 261 262 263 264 265 266 267 268 269 271 272 273 274 276 277 278 280 281 281 280 280 281 283 285 288 290 292 292 292 293 293 294 294 295 295 295 295 295 296 297 297 296 296 296 296 297 298 299 298 295 293 289 286 281 276 271 269 266 265 264 263 263 266 269 271 274 276 278 282
243 244 246 248 249 250 250 251 251 252 253 253 254 256 257 258 259 260 261 263 264 265 266 268 269 270 272 273 274 276 277 278 279 279 279 279 280 282 285 288 289 291 291 292 292 293 293 293 294 295 295 295 295 296 297 298 297 297 297 297 299 302 303 302 300 297 293 287 280 274 270 267 262 259 260 260 260 261 263 266 268 270 271 275 281
243 244 246 248 249 250 251 251 251 252 253 253 254 255 256 257 258 259 260 261 263 264 266 267 269 270 271 273 274 275 275 276 277 278 278 280 282 285 287 289 290 290 290 291 292 293 293 293 294 295 295 296 296 296 297 298 298 298 298 300 302 304 304 305 304 300 294 286 278 273 271 267 259 252 252 255 258 260 262 262 264 267 270 274 279
242 244 245 247 248 249 250 250 251 252 253 254 255 255 256 257 258 259 260 262 263 265 266 268 269 270 271 272 273 274 275 276 277 279 280 282 285 287 288 289 289 289 289 290 291 292 292 293 294 295 295 296 296 296 297 297 298 298 300 301 304 305 306 306 305 300 293 286 280 274 269 265 259 251 249 252 255 255 256 259 263 266 270 275 279
241 242 243 244 246 247 248 249 250 251 252 253 254 255 257 258 259 260 261 263 264 265 266 267 268 269 269 271 272 273 275 277 278 280 283 285 286 287 287 288 288 289 290 291 291 291 292 293 294 295 295 295 295 296 297 297 297 298 301 302 304 306 307 306 305 302 291 280 279 279 273 265 256 246 242 245 249 251 256 262 265 265 267 273 278
243 244 244 245 246 246 247 248 249 250 251 252 254 255 256 258 259 260 261 262 263 264 265 266 267 268 269 271 272 274 276 278 280 282 284 285 286 286 286 288 289 290 291 291 291 292 293 294 294 295 295 295 295 295 295 296 297 298 300 302 303 307 310 307 305 309 306 294 293 297 279 261 248 237 231 234 243 256 266 270 267 263 265 271 276
245 245 246 246 246 247 248 249 249 251 251 252 253 254 256 257 258 259 260 261 263 264 265 267 268 270 272 273 275 276 278 279 281 283 284 285 285 286 287 289 290 291 291 291 291 291 292 293 294 295 294 293 294 294 294 296 296 297 300 303 304 311 318 311 297 299 311 307 288 270 256 244 235 226 225 233 253 270 273 269 264 263 266 270 274
246 247 247 247 247 248 249 249 250 251 252 253 254 255 256 258 259 261 262 263 264 266 267 269 271 273 274 276 277 278 279 280 281 282 284 285 286 287 288 289 290 291 291 291 290 290 291 292 293 294 293 293 294 295 296 297 299 301 304 309 313 320 327 322 299 289 291 276 252 241 237 233 226 222 229 249 270 273 266 261 260 263 267 271 274
247 248 248 249 249 250 250 250 251 251 252 253 255 256 257 259 260 262 263 264 266 267 269 271 273 274 276 277 278 279 279 279 280 282 284 285 286 287 287 288 290 292 292 291 290 289 290 292 293 294 294 295 296 297 298 299 302 305 307 311 316 321 324 322 309 287 268 251 236 231 242 254 248 244 254 269 273 269 265 264 264 266 269 271 270
245 246 247 248 249 250 251 252 252 253 253 254 254 255 257 259 261 263 264 265 267 269 270 272 274 276 276 277 278 279 278 278 280 282 285 286 286 287 287 288 289 290 290 290 289 288 290 292 294 295 295 296 297 298 299 301 303 306 307 308 312 315 314 312 314 311 296 280 270 273 284 284 273 265 268 271 270 269 270 269 267 268 269 269 266
245 246 247 249 250 251 251 252 253 253 254 254 256 257 259 261 262 263 264 266 267 269 271 273 275 276 277 277 278 277 277 278 281 284 286 286 286 286 287 287 288 289 289 289 289 289 290 292 294 294 295 296 297 298 299 301 302 304 305 306 307 309 309 310 313 316 314 307 301 296 293 286 273 267 267 268 268 270 271 271 271 271 269 267 264
245 246 248 249 250 251 252 253 254 255 256 257 258 259 260 261 263 264 265 266 268 269 271 274 275 276 276 277 277 276 276 279 283 284 284 284 285 286 287 287 288 289 290 290 290 291 291 292 292 293 293 294 296 297 298 300 301 302 303 304 305 305 306 307 308 308 307 304 300 296 291 284 279 276 274 273 274 276 276 276 277 275 272 268 264
246 247 248 250 251 252 253 254 255 257 258 258 259 260 261 262 263 264 266 267 269 270 273 275 275 275 276 276 276 276 278 281 283 283 283 283 284 285 286 287 288 289 290 290 291 291 291 291 291 292 292 293 295 296 297 298 299 300 300 301 303 303 302 302 302 301 298 294 291 289 288 286 284 283 282 282 283 283 282 280 279 278 275 269 261
247 248 249 251 252 253 254 256 257 258 259 261 262 262 262 263 264 266 267 269 270 273 275 276 275 274 275 276 276 277 279 281 281 282 282 283 283 284 285 286 287 287 288 289 290 290 291 291 291 292 293 294 295 295 296 295 296 297 298 300 302 302 300 297 294 292 290 288 287 287 286 287 287 287 286 286 286 285 284 284 282 280 276 269 260
248 249 251 252 254 255 257 258 260 261 262 263 263 263 263 264 265 266 267 269 272 274 276 276 274 273 274 276 277 278 279 280 281 282 283 283 283 283 283 284 285 285 286 288 288 289 290 291 291 291 292 293 294 294 294 294 293 293 295 297 299 297 293 290 288 287 286 286 285 285 286 288 289 289 289 289 288 287 286 285 283 282 278 271 263
250 251 253 255 256 258 260 261 262 263 263 263 263 264 264 265 265 267 268 270 272 274 274 274 273 274 275 277 278 278 279 280 281 283 284 283 282 282 282 282 283 284 285 285 286 286 287 288 288 289 290 291 292 293 293 294 294 294 293 295 297 297 296 292 290 289 289 289 288 287 288 288 288 287 287 286 286 286 284 282 281 279 275 268 263
253 254 256 258 259 261 262 263 263 264 264 264 264 264 264 265 266 267 269 270 272 272 272 273 274 275 277 278 278 278 278 280 282 283 283 282 281 281 281 282 282 283 283 283 284 284 285 285 285 286 287 288 289 291 292 293 293 293 292 293 295 298 300 299 295 292 290 287 284 283 283 282 281 281 281 281 281 280 278 276 273 270 266 262 260
255 256 258 259 260 262 263 263 264 263 263 262 261 261 262 263 264 266 267 269 270 270 272 274 276 277 278 279 279 279 279 281 282 282 281 280 280 280 280 280 280 281 281 281 282 282 283 283 284 285 285 286 287 289 292 293 293 293 292 291 291 293 295 295 294 292 289 285 282 279 278 278 278 279 279 280 279 277 275 272 267 262 259 257 256
Height
5912 5914 5915 5916 5918 5919 5921 5922 5924 5925 5926 5928 5929 5929 5930 5931 5932 5933 5933 5934 5934 5935 5936 5936 5936 5936 5937 5937 5938 5938 5938 5939 5939 5939 5940 5940 5940 5940 5941 5941 5941 5941 5941 5941 5942 5941 5941 5941 5941 5940 5940 5940 5940 5939 5938 5938 5937 5937 5936 5935 5934 5934 5933 5932 5932 5931 5930 5930 5929 5928 5927 5926 5925 5924 5924 5922 5921 5920 5919 5918 5917 5916 5914 5913 5911
5911 5912 5913 5915 5916 5917 5919 5920 5922 5923 5925 5926 5927 5928 5929 5930 5930 5931 5932 5932 5933 5933 5934 5934 5934 5935 5935 5935 5936 5936 5937 5937 5937 5938 5938 5938 5939 5939 5939 5939 5939 5939 5940 5940 5940 5941 5940 5940 5940 5939 5939 5939 5939 5939 5938 5937 5936 5936 5935 5934 5933 5932 5932 5931 5931 5930 5930 5928 5927 5926 5926 5925 5923 5922 5921 5921 5920 5918 5917 5916 5915 5914 5913 5911 5910
5909 5910 5912 5913 5914 5916 5917 5919 5920 5922 5923 5924 5925 5926 5927 5928 5929 5929 5930 5930 5931 5931 5932 5932 5932 5933 5933 5933 5934 5935 5935 5935 5935 5936 5936 5936 5937 5937 5938 5938 5938 5938 5938 5938 5939 5939 5940 5939 5939 5938 5938 5938 5938 5938 5937 5936 5935 5935 5934 5933 5932 5931 5930 5930 5930 5929 5929 5928 5927 5925 5924 5924 5923 5922 5920 5919 5918 5917 5916 5915 5913 5912 5911 5910 5908
5907 5908 5910 5912 5913 5915 5916 5918 5919 5921 5922 5923 5923 5924 5925 5926 5927 5928 5928 5929 5929 5929 5930 5930 5930 5931 5931 5932 5932 5932 5933 5933 5933 5934 5934 5935 5935 5935 5936 5936 5936 5936 5937 5937 5937 5938 5938 5938 5938 5937 5937 5936 5936 5936 5936 5935 5934 5934 5933 5932 5932 5931 5930 5929 5929 5928 5928 5927 5927 5925 5924 5923 5922 5921 5920 5918 5917 5916 5915 5913 5912 5910 5909 5908 5907
5905 5907 5909 5910 5912 5914 5915 5916 5918 5919 5920 5921 5921 5922 5923 5924 5925 5925 5926 5927 5927 5927 5928 5928 5928 5928 5929 5929 5930 5930 5931 5931 5931 5931 5932 5933 5933 5933 5933 5934 5935 5935 5935 5935 5936 5936 5936 5936 5936 5936 5935 5935 5934 5934 5934 5934 5933 5932 5932 5931 5931 5930 5930 5929 5928 5927 5927 5926 5926 5925 5924 5922 5921 5920 5919 5917 5916 5915 5914 5912 5911 5909 5908 5906 5905
5904 5906 5907 5909 5911 5912 5913 5915 5916 5917 5918 5918 5919 5919 5920 5922 5922 5923 5924 5924 5925 5925 5926 5926 5926 5926 5926 5926 5927 5928 5928 5929 5929 5929 5930 5931 5931 5931 5931 5932 5932 5933 5933 5933 5934 5934 5934 5934 5934 5934 5934 5933 5932 5932 5932 5932 5932 5931 5931 5930 5930 5929 5929 5928 5927 5926 5925 5925 5924 5923 5923 5922 5920 5919 5917 5916 5915 5914 5912 5911 5910 5908 5906 5904 5903
5902 5904 5905 5907 5909 5911 5912 5913 5913 5914 5915 5916 5916 5917 5918 5919 5920 5921 5921 5922 5922 5923 5924 5924 5924 5924 5924 5924 5925 5926 5926 5926 5927 5927 5928 5928 5929 5929 5928 5929 5930 5930 5931 5931 5931 5931 5932 5932 5932 5932 5932 5931 5931 5930 5930 5930 5930 5930 5929 5929 5928 5928 5927 5927 5926 5925 5924 5923 5922 5922 5921 5920 5919 5917 5916 5914 5913 5912 5911 5909 5908 5907 5905 5903 5900
5901 5902 5903 5905 5907 5908 5909 5910 5911 5912 5912 5913 5914 5915 5915 5917 5918 5918 5919 5919 5920 5921 5922 5922 5921 5921 5922 5922 5922 5923 5923 5924 5924 5925 5925 5925 5926 5926 5926 5926 5927 5928 5928 5928 5928 5929 5929 5930 5930 5930 5930 5930 5929 5928 5928 5928 5928 5928 5928 5927 5927 5927 5926 5925 5924 5924 5923 5922 5920 5919 5919 5918 5917 5915 5914 5912 5911 5910 5909 5908 5906 5905 5903 5901 5899
5899 5901 5902 5903 5904 5906 5906 5907 5908 5909 5910 5911 5912 5913 5913 5914 5915 5916 5917 5917 5917 5918 5919 5919 5919 5919 5919 5920 5920 5920 5921 5921 5922 5922 5922 5922 5923 5923 5924 5924 5924 5925 5926 5926 5926 5926 5927 5927 5928 5928 5928 5928 5927 5927 5926 5926 5927 5927 5927 5926 5925 5925 5924 5924 5923 5922 5921 5920 5919 5918 5917 5916 5914 5913 5912 5910 5909 5907 5906 5905 5904 5903 5901 5900 5897
5898 5899 5901 5901 5902 5903 5904 5904 5906 5907 5908 5909 5909 5910 5910 5911 5912 5913 5914 5914 5915 5915 5916 5916 5917 5917 5917 5917 5917 5918 5918 5919 5919 5920 5920 5920 5920 5921 5921 5922 5922 5923 5924 5924 5924 5924 5925 5925 5925 5926 5926 5926 5926 5925 5925 5925 5925 5925 5925 5924 5924 5923 5922 5922 5921 5920 5919 5918 5917 5916 5915 5914 5912 5911 5910 5908 5906 5905 5903 5902 5901 5900 5899 5898 5896
5896 5897 5899 5899 5900 5901 5901 5902 5903 5904 5905 5906 5907 5907 5908 5908 5909 5910 5911 5912 5912 5913 5913 5914 5914 5915 5915 5915 5915 5916 5916 5917 5917 5917 5917 5918 5918 5918 5919 5920 5920 5921 5922 5922 5922 5922 5922 5922 5923 5923 5924 5925 5924 5924 5924 5923 5923 5923 5923 5922 5921 5921 5920 5919 5918 5918 5917 5916 5915 5914 5913 5911 5909 5908 5907 5905 5904 5903 5901 5900 5898 5897 5896 5895 5894
5894 5895 5897 5898 5898 5898 5899 5899 5900 5902 5903 5904 5904 5904 5905 5906 5907 5908 5909 5910 5910 5910 5911 5911 5912 5913 5913 5914 5914 5914 5914 5915 5915 5915 5915 5916 5916 5916 5917 5918 5918 5919 5919 5920 5920 5920 5920 5920 5921 5921 5922 5923 5923 5923 5922 5921 5921 5920 5920 5919 5919 5919 5918 5917 5916 5915 5914 5913 5912 5911 5910 5908 5907 5905 5904 5902 5901 5900 5898 5897 5895 5894 5893 5891 5890
5891 5892 5894 5895 5896 5897 5897 5897 5898 5899 5900 5901 5901 5902 5902 5904 5905 5906 5907 5907 5907 5908 5909 5910 5910 5911 5911 5912 5912 5912 5912 5912 5913 5913 5914 5914 5914 5915 5916 5916 5917 5917 5917 5918 5918 5918 5919 5919 5919 5919 5919 5920 5920 5921 5920 5920 5919 5917 5916 5916 5916 5916 5916 5915 5914 5913 5911 5910 5909 5908 5907 5905 5903 5902 5901 5899 5898 5897 5895 5894 5892 5891 5889 5887 5886
5889 5890 5891 5893 5894 5895 5895 5896 5896 5897 5898 5898 5899 5900 5900 5901 5902 5903 5904 5904 5905 5906 5907 5907 5908 5908 5909 5909 5910 5910 5910 5911 5911 5912 5912 5913 5913 5913 5914 5914 5915 5916 5916 5916 5916 5916 5916 5916 5916 5916 5917 5917 5918 5918 5918 5917 5916 5915 5913 5913 5913 5912 5912 5912 5911 5910 5908 5906 5905 5905 5904 5901 5900 5899 5897 5896 5894 5893 5891 5890 5889 5887 5885 5883 5882
5886 5888 5889 5890 5891 5892 5893 5894 5894 5895 5895 5896 5897 5898 5898 5899 5899 5900 5901 5902 5903 5904 5904 5905 5905 5906 5906 5907 5908 5908 5909 5909 5910 5910 5911 5911 5911 5911 5912 5912 5913 5914 5914 5914 5914 5914 5914 5914 5914 5914 5914 5914 5915 5915 5914 5914 5913 5911 5910 5909 5909 5908 5907 5908 5908 5906 5904 5902 5901 5900 5899 5897 5896 5894 5893 5892 5890 5889 5887 5885 5884 5883 5881 5878 5877
5884 5885 5886 5887 5888 5889 5890 5891 5892 5892 5893 5894 5894 5895 5896 5896 5897 5897 5899 5900 5900 5901 5902 5903 5903 5904 5904 5905 5906 5907 5907 5908 5908 5909 5909 5909 5909 5909 5910 5910 5911 5911 5912 5912 5912 5912 5912 5911 5911 5911 5911 5911 5911 5911 5910 5909 5909 5908 5906 5905 5904 5903 5903 5904 5904 5902 5900 5899 5897 5895 5894 5893 5892 5890 5888 5887 5886 5885 5883 5881 5879 5878 5876 5874 5872
5881 5882 5884 5884 5885 5886 5887 5889 5889 5889 5890 5891 5892 5893 5893 5893 5894 5895 5896 5897 5898 5899 5899 5900 5901 5902 5902 5903 5904 5905 5906 5906 5907 5908 5908 5908 5907 5907 5907 5907 5907 5908 5909 5909 5909 5909 5909 5909 5909 5909 5908 5908 5907 5907 5906 5904 5904 5903 5902 5901 5899 5898 5898 5899 5899 5897 5896 5894 5893 5891 5889 5888 5887 5886 5884 5882 5881 5880 5878 5877 5874 5872 5870 5868 5867
5877 5879 5880 5882 5882 5883 5884 5886 5886 5887 5888 5888 5889 5889 5890 5890 5891 5892 5893 5894 5895 5896 5897 5898 5899 5900 5901 5901 5902 5903 5904 5905 5906 5906 5907 5907 5906 5906 5905 5904 5904 5905 5906 5906 5906 5905 5906 5906 5906 5906 5905 5904 5903 5902 5901 5900 5899 5898 5897 5896 5894 5893 5893 5894 5893 5892 5891 5888 5887 5886 5885 5883 5881 5880 5879 5878 5876 5875 5874 5872 5869 5866 5865 5863 5861
5873 5875 5877 5878 5879 5880 5881 5883 5884 5884 5885 5886 5886 5886 5887 5887 5888 5889 5890 5892 5893 5894 5895 5896 5897 5898 5899 5900 5901 5902 5902 5903 5904 5904 5905 5904 5904 5904 5903 5902 5902 5902 5902 5901 5901 5900 5901 5902 5902 5902 5901 5900 5899 5898 5897 5895 5894 5893 5892 5890 5888 5889 5889 5887 5885 5885 5885 5883 5881 5881 5879 5878 5876 5874 5874 5873 5871 5869 5868 5867 5864 5861 5859 5858 5856
5869 5871 5872 5874 5876 5877 5878 5880 5881 5882 5883 5883 5883 5884 5884 5885 5886 5887 5888 5889 5890 5891 5893 5894 5895 5896 5897 5898 5898 5899 5900 5900 5901 5902 5902 5901 5901 5900 5899 5899 5900 5899 5897 5896 5896 5895 5896 5896 5897 5897 5896 5895 5894 5893 5892 5890 5889 5888 5886 5884 5884 5885 5884 5881 5878 5877 5878 5877 5876 5875 5873 5872 5871 5869 5868 5867 5865 5863 5862 5861 5859 5856 5853 5852 5850
5864 5866 5868 5870 5872 5874 5875 5877 5878 5879 5880 5880 5881 5881 5881 5882 5883 5884 5886 5887 5888 5889 5890 5891 5893 5894 5895 5895 5896 5896 5897 5897 5898 5899 5899 5898 5897 5896 5895 5896 5896 5894 5892 5892 5891 5891 5891 5891 5891 5891 5890 5889 5887 5886 5886 5885 5884 5882 5880 5879 5880 5880 5877 5874 5872 5871 5870 5871 5871 5870 5867 5866 5865 5864 5862 5861 5859 5857 5855 5855 5853 5850 5846 5845 5844
5860 5862 5863 5866 5868 5870 5871 5873 5875 5876 5877 5877 5878 5879 5879 5880 5880 5881 5883 5884 5885 5886 5887 5888 5889 5891 5892 5892 5893 5893 5893 5893 5894 5895 5895 5894 5893 5892 5891 5891 5890 5889 5887 5887 5887 5887 5887 5886 5885 5885 5883 5882 5881 5879 5879 5879 5877 5875 5875 5875 5874 5873 5870 5867 5865 5863 5862 5863 5864 5863 5862 5861 5860 5859 5857 5855 5853 5851 5849 5847 5845 5842 5839 5838 5838
5856 5857 5859 5861 5863 5866 5868 5869 5871 5872 5873 5874 5875 5876 5876 5877 5878 5878 5880 5881 5882 5883 5884 5885 5886 5887 5888 5888 5889 5889 5889 5889 5889 5890 5890 5889 5888 5887 5887 5886 5885 5884 5883 5883 5883 5882 5882 5881 5880 5879 5877 5877 5876 5874 5873 5872 5870 5869 5869 5868 5867 5864 5862 5859 5856 5854 5854 5855 5856 5856 5856 5856 5854 5853 5852 5850 5848 5846 5843 5839 5836 5834 5833 5833 5833
5853 5854 5855 5857 5859 5861 5863 5865 5867 5868 5870 5871 5872 5872 5873 5874 5875 5875 5877 5878 5879 5880 5881 5882 5882 5883 5883 5884 5884 5884 5884 5884 5884 5884 5884 5883 5882 5882 5882 5882 5881 5879 5879 5879 5878 5877 5876 5875 5874 5873 5871 5871 5870 5868 5867 5866 5864 5863 5862 5861 5858 5856 5853 5851 5848 5846 5844 5846 5847 5848 5849 5849 5847 5846 5846 5844 5842 5840 5837 5833 5830 5829 5827 5826 5826
5850 5851 5852 5853 5855 5856 5859 5861 5863 5864 5866 5867 5868 5869 5869 5870 5871 5872 5873 5874 5875 5876 5877 5878 5878 5878 5879 5879 5880 5879 5879 5879 5878 5877 5877 5877 5877 5878 5878 5877 5876 5874 5873 5873 5873 5872 5870 5868 5867 5866 5864 5864 5863 5862 5860 5859 5858 5857 5856 5854 5851 5848 5846 5843 5840 5836 5834 5835 5837 5838 5839 5840 5840 5839 5838 5836 5834 5833 5831 5827 5825 5823 5820 5819 5819
5846 5847 5848 5849 5850 5852 5854 5857 5859 5860 5861 5862 5863 5864 5865 5866 5867 5868 5869 5870 5871 5872 5872 5873 5873 5874 5875 5875 5875 5875 5874 5874 5872 5871 5870 5872 5873 5873 5872 5871 5871 5869 5867 5867 5866 5865 5863 5861 5861 5859 5858 5856 5855 5854 5853 5852 5851 5849 5847 5846 5844 5841 5838 5835 5832 5828 5825 5824 5825 5827 5829 5830 5831 5830 5829 5827 5826 5826 5825 5822 5819 5815 5812 5813 5813
5842 5843 5844 5845 5847 5849 5850 5852 5854 5856 5857 5858 5859 5860 5861 5862 5863 5864 5865 5866 5867 5867 5868 5868 5869 5869 5869 5870 5870 5870 5869 5868 5866 5865 5866 5866 5867 5867 5866 5865 5864 5863 5861 5860 5859 5857 5855 5854 5854 5853 5851 5849 5847 5846 5845 5844 5842 5840 5838 5836 5834 5831 5828 5826 5822 5818 5815 5814 5814 5816 5818 5820 5820 5820 5820 5819 5818 5818 5818 5816 5813 5808 5806 5806 5806
5838 5839 5841 5842 5843 5845 5846 5848 5850 5851 5852 5853 5853 5855 5857 5858 5858 5860 5861 5862 5862 5863 5863 5863 5863 5864 5864 5864 5864 5864 5863 5862 5861 5861 5861 5860 5860 5860 5860 5859 5858 5856 5855 5853 5852 5850 5848 5847 5847 5846 5844 5841 5839 5838 5837 5836 5834 5832 5830 5828 5825 5821 5817 5814 5811 5807 5805 5804 5804 5804 5806 5807 5809 5810 5810 5809 5808 5809 5809 5808 5804 5801 5800 5800 5798
5834 5835 5837 5838 5839 5841 5842 5844 5845 5846 5847 5848 5849 5852 5853 5853 5854 5855 5857 5857 5857 5858 5858 5858 5858 5859 5859 5859 5858 5858 5857 5857 5856 5856 5855 5854 5853 5853 5852 5851 5851 5850 5848 5846 5845 5843 5841 5839 5839 5838 5835 5833 5831 5829 5829 5828 5825 5823 5822 5820 5817 5812 5806 5802 5798 5794 5793 5793 5793 5793 5795 5797 5797 5798 5799 5799 5798 5798 5798 5796 5794 5794 5794 5792 5791
5830 5832 5833 5834 5836 5837 5838 5839 5840 5841 5843 5844 5846 5847 5848 5849 5850 5851 5852 5852 5852 5852 5853 5853 5853 5853 5853 5853 5853 5852 5852 5851 5851 5850 5849 5848 5847 5845 5844 5844 5843 5842 5841 5840 5838 5837 5834 5832 5830 5829 5827 5824 5822 5821 5820 5819 5815 5813 5812 5810 5807 5803 5798 5792 5786 5783 5784 5785 5784 5782 5783 5785 5786 5786 5787 5788 5788 5788 5788 5785 5784 5785 5787 5786 5784
5826 5828 5829 5831 5832 5832 5833 5835 5836 5836 5838 5840 5842 5842 5843 5844 5845 5846 5846 5847 5847 5847 5847 5848 5848 5848 5848 5848 5847 5847 5846 5846 5845 5844 5843 5841 5839 5838 5837 5836 5835 5834 5833 5832 5830 5828 5826 5824 5822 5821 5819 5816 5814 5812 5811 5809 5805 5803 5802 5799 5796 5794 5789 5784 5779 5777 5777 5778 5776 5772 5769 5771 5774 5775 5775 5776 5777 5778 5778 5776 5777 5778 5779 5779 5777
5821 5823 5825 5826 5827 5828 5829 5830 5831 5832 5834 5836 5837 5837 5838 5839 5840 5840 5841 5842 5842 5842 5842 5843 5842 5842 5842 5842 5842 5842 5841 5840 5839 5838 5836 5835 5833 5832 5830 5828 5827 5827 5826 5824 5822 5820 5817 5815 5814 5812 5810 5807 5805 5804 5802 5800 5797 5794 5791 5788 5785 5784 5781 5777 5774 5770 5766 5763 5761 5757 5754 5757 5761 5763 5762 5763 5766 5768 5768 5768 5769 5771 5772 5771 5770
5817 5818 5820 5821 5822 5823 5824 5825 5826 5827 5829 5830 5831 5832 5833 5833 5834 5835 5836 5836 5836 5837 5837 5837 5837 5837 5837 5837 5836 5835 5835 5833 5832 5832 5830 5829 5827 5826 5824 5821 5820 5820 5818 5816 5813 5811 5809 5807 5805 5803 5801 5799 5796 5795 5793 5791 5788 5785 5781 5777 5774 5773 5771 5768 5763 5758 5754 5749 5745 5743 5743 5743 5747 5750 5752 5752 5755 5759 5760 5761 5762 5764 5765 5764 5764
5812 5813 5815 5816 5817 5818 5819 5820 5821 5822 5824 5825 5826 5827 5828 5828 5829 5829 5830 5830 5831 5831 5832 5832 5832 5831 5831 5830 5830 5829 5828 5827 5826 5825 5823 5822 5820 5819 5818 5815 5814 5813 5811 5808 5805 5803 5801 5799 5797 5795 5793 5790 5788 5786 5784 5782 5779 5775 5771 5767 5763 5761 5758 5754 5749 5744 5740 5735 5731 5732 5732 5732 5733 5737 5741 5743 5746 5750 5753 5754 5755 5757 5758 5758 5757
5807 5808 5809 5811 5812 5813 5814 5816 5816 5817 5818 5819 5820 5821 5822 5822 5823 5823 5824 5825 5825 5825 5825 5825 5825 5825 5824 5823 5823 5822 5821 5820 5819 5818 5816 5814 5813 5812 5811 5809 5806 5805 5803 5800 5798 5796 5793 5791 5789 5787 5785 5782 5780 5777 5775 5773 5770 5765 5761 5756 5752 5749 5745 5741 5735 5729 5723 5717 5715 5717 5718 5718 5721 5727 5732 5735 5738 5743 5746 5747 5748 5749 5750 5751 5751
5802 5803 5804 5806 5807 5808 5809 5810 5811 5811 5812 5813 5814 5815 5816 5817 5817 5818 5818 5819 5818 5818 5819 5819 5819 5818 5817 5817 5816 5815 5814 5813 5812 5811 5809 5807 5806 5805 5804 5801 5799 5797 5795 5793 5791 5788 5785 5783 5781 5779 5776 5774 5772 5769 5767 5764 5760 5756 5751 5746 5742 5739 5735 5729 5721 5712 5703 5700 5703 5707 5706 5707 5711 5718 5723 5727 5731 5736 5739 5739 5740 5742 5744 5744 5745
5797 5798 5799 5800 5801 5802 5803 5803 5804 5805 5806 5807 5808 5808 5809 5810 5811 5811 5812 5812 5811 5811 5812 5813 5812 5811 5810 5809 5809 5808 5807 5806 5804 5803 5801 5800 5799 5798 5796 5794 5792 5790 5788 5786 5784 5781 5778 5775 5773 5771 5768 5766 5764 5761 5759 5756 5752 5748 5744 5738 5734 5730 5725 5720 5713 5703 5694 5693 5697 5700 5700 5700 5703 5708 5715 5721 5726 5730 5731 5731 5733 5736 5738 5739 5739
5790 5791 5792 5793 5794 5796 5797 5797 5798 5799 5800 5800 5801 5802 5803 5803 5804 5805 5806 5806 5805 5805 5805 5805 5805 5804 5804 5802 5801 5801 5800 5799 5797 5795 5793 5792 5791 5790 5788 5786 5784 5782 5780 5779 5777 5774 5771 5768 5766 5763 5761 5759 5756 5754 5752 5748 5744 5740 5737 5733 5728 5722 5715 5709 5704 5697 5691 5691 5693 5693 5694 5695 5699 5704 5710 5716 5720 5724 5726 5726 5728 5730 5732 5732 5733
5783 5785 5786 5787 5788 5789 5790 5791 5792 5793 5793 5794 5795 5795 5796 5797 5797 5798 5799 5799 5798 5797 5797 5797 5797 5797 5796 5795 5795 5794 5793 5792 5790 5788 5786 5785 5784 5782 5781 5779 5777 5775 5772 5770 5768 5766 5764 5761 5759 5756 5754 5752 5749 5747 5745 5742 5738 5734 5731 5729 5726 5719 5709 5701 5697 5693 5690 5690 5690 5690 5691 5693 5696 5701 5707 5711 5715 5719 5722 5722 5723 5725 5726 5726 5727
5777 5778 5780 5781 5782 5783 5784 5784 5785 5786 5786 5787 5788 5788 5789 5790 5790 5791 5791 5791 5790 5790 5789 5789 5790 5789 5788 5788 5787 5786 5786 5785 5783 5781 5779 5777 5776 5774 5773 5771 5769 5767 5764 5762 5760 5759 5757 5755 5752 5749 5747 5744 5743 5740 5737 5735 5732 5729 5725 5723 5720 5715 5706 5698 5694 5693 5693 5694 5694 5692 5692 5694 5695 5699 5705 5709 5712 5714 5716 5716 5718 5719 5719 5720 5720
5770 5771 5772 5773 5775 5776 5777 5778 5778 5778 5779 5780 5781 5781 5781 5782 5782 5783 5783 5783 5783 5782 5782 5782 5783 5783 5781 5780 5779 5779 5778 5777 5776 5774 5772 5770 5768 5767 5765 5764 5762 5759 5757 5754 5753 5751 5750 5748 5746 5743 5740 5737 5735 5732 5730 5727 5726 5723 5719 5714 5711 5707 5702 5698 5695 5694 5694 5695 5695 5694 5695 5696 5698 5701 5704 5706 5708 5709 5711 5712 5713 5714 5713 5713 5714
5763 5764 5765 5766 5767 5769 5770 5770 5770 5772 5773 5774 5773 5773 5773 5774 5774 5775 5775 5776 5776 5775 5775 5775 5776 5776 5775 5773 5771 5771 5770 5769 5768 5767 5765 5763 5761 5759 5758 5756 5754 5752 5749 5747 5746 5745 5743 5741 5739 5736 5733 5730 5728 5725 5723 5721 5718 5716 5713 5710 5706 5704 5703 5702 5702 5701 5698 5695 5696 5698 5699 5701 5702 5703 5703 5704 5705 5706 5707 5707 5708 5709 5708 5708 5707
5754 5756 5756 5758 5760 5762 5763 5763 5764 5765 5766 5765 5765 5765 5766 5767 5768 5768 5768 5769 5769 5768 5767 5768 5768 5769 5768 5766 5764 5763 5762 5760 5760 5759 5757 5755 5754 5752 5750 5748 5746 5744 5742 5741 5739 5738 5736 5734 5732 5730 5727 5725 5722 5719 5716 5715 5713 5711 5709 5706 5704 5703 5703 5702 5702 5703 5701 5699 5700 5701 5701 5701 5701 5701 5701 5702 5702 5702 5702 5703 5703 5704 5704 5702 5702
5747 5748 5749 5751 5753 5755 5755 5755 5755 5756 5756 5757 5758 5759 5760 5761 5762 5761 5761 5762 5761 5760 5760 5760 5760 5760 5760 5758 5756 5755 5754 5753 5752 5751 5749 5748 5746 5744 5742 5741 5739 5737 5735 5734 5732 5731 5730 5727 5726 5724 5722 5719 5717 5714 5711 5709 5707 5705 5704 5702 5701 5700 5700 5698 5696 5696 5697 5697 5697 5697 5697 5696 5697 5697 5698 5698 5698 5698 5697 5697 5698 5699 5699 5698 5697
5739 5741 5743 5745 5746 5746 5746 5747 5747 5748 5749 5751 5752 5753 5753 5754 5754 5754 5754 5753 5753 5752 5752 5752 5752 5751 5751 5750 5749 5747 5746 5745 5744 5743 5742 5741 5739 5737 5735 5734 5732 5730 5728 5727 5726 5724 5723 5721 5720 5718 5716 5714 5712 5710 5706 5704 5702 5700 5699 5697 5696 5695 5695 5694 5693 5693 5693 5692 5692 5692 5692 5693 5693 5693 5694 5695 5694 5694 5693 5692 5692 5693 5695 5695 5694
5731 5734 5736 5737 5738 5738 5738 5739 5741 5742 5742 5743 5744 5746 5746 5746 5746 5746 5746 5746 5745 5744 5744 5743 5743 5743 5742 5742 5741 5740 5739 5738 5736 5735 5734 5733 5732 5730 5728 5727 5725 5724 5722 5720 5719 5718 5716 5715 5713 5712 5711 5709 5708 5706 5703 5700 5697 5695 5694 5693 5692 5691 5690 5690 5690 5690 5689 5688 5688 5688 5688 5688 5689 5689 5690 5690 5690 5690 5689 5689 5689 5689 5690 5690 5690
5724 5727 5728 5728 5729 5730 5730 5731 5733 5734 5735 5736 5737 5739 5739 5738 5738 5738 5738 5738 5737 5736 5736 5735 5735 5734 5734 5733 5733 5732 5731 5730 5729 5727 5726 5725 5725 5723 5722 5720 5719 5717 5716 5714 5713 5711 5710 5709 5708 5706 5705 5704 5703 5702 5699 5697 5694 5692 5690 5689 5688 5687 5686 5686 5686 5686 5685 5685 5685 5685 5685 5685 5685 5685 5685 5685 5685 5686 5685 5685 5685 5685 5685 5685 5686
5716 5718 5718 5719 5720 5722 5723 5724 5726 5727 5728 5728 5729 5730 5730 5730 5729 5729 5730 5730 5729 5728 5728 5727 5727 5726 5726 5726 5725 5724 5723 5723 5721 5720 5719 5718 5717 5716 5715 5713 5712 5711 5709 5708 5707 5705 5704 5703 5702 5700 5699 5698 5697 5696 5695 5693 5691 5689 5687 5686 5685 5684 5683 5683 5683 5683 5682 5682 5681 5681 5681 5681 5681 5681 5681 5680 5681 5681 5682 5682 5682 5681 5681 5681 5682
5708 5709 5710 5711 5713 5714 5715 5716 5717 5718 5719 5719 5720 5720 5720 5720 5720 5721 5721 5721 5721 5721 5720 5720 5719 5719 5718 5717 5716 5716 5716 5715 5714 5713 5711 5710 5709 5708 5707 5706 5705 5704 5703 5702 5701 5700 5699 5698 5696 5695 5693 5692 5691 5690 5689 5688 5688 5686 5684 5683 5681 5680 5680 5680 5679 5679 5679 5679 5678 5678 5678 5678 5678 5678 5677 5677 5677 5677 5678 5678 5678 5677 5678 5678 5678
5700 5701 5702 5703 5704 5705 5706 5707 5708 5709 5709 5710 5710 5710 5711 5711 5711 5712 5713 5713 5713 5713 5713 5712 5712 5711 5710 5710 5709 5708 5708 5707 5706 5705 5703 5702 5701 5700 5700 5699 5698 5697 5696 5695 5694 5694 5693 5692 5691 5689 5688 5687 5685 5685 5684 5684 5683 5683 5681 5679 5677 5676 5675 5675 5676 5676 5676 5676 5675 5675 5676 5676 5675 5675 5674 5674 5674 5673 5673 5673 5673 5673 5673 5674 5674
5693 5693 5694 5695 5696 5697 5697 5698 5699 5699 5699 5699 5700 5701 5701 5702 5703 5704 5705 5705 5705 5705 5705 5705 5704 5704 5703 5702 5702 5701 5701 5700 5698 5697 5696 5695 5694 5693 5692 5691 5690 5689 5689 5688 5687 5687 5687 5686 5685 5684 5683 5681 5680 5680 5680 5679 5679 5678 5677 5675 5674 5673 5672 5671 5671 5672 5672 5672 5672 5671 5671 5671 5671 5670 5670 5670 5669 5669 5669 5669 5669 5669 5669 5670 5670